Location: Breungeshain
(50.5000°N, 9.2000°E)
Time: 20:43:05
(UTC+00:00)

ISS - Pass Details

Date: 25 May 2017
Orbit: 401 x 408 km, 51.6° (Epoch: 25 June)

Event Time Altitude Azimuth Distance (km) Brightness Sun altitude
Rises 02:13:08 0° 285° (WNW) 2,336 -0.2 -9.0°
Reaches altitude 10° 02:15:26 10° 272° (W) 1,470 -1.4 -8.8°
Maximum altitude 02:18:13 26° 214° (SW) 848 -2.8 -8.5°
Drops below altitude 10° 02:21:00 10° 156° (SSE) 1,458 -1.2 -8.2°
Sets 02:23:16 0° 143° (SE) 2,312 -0.1 -7.9°
